Regional Weather Roundup
Issued by NWS

Home | Current Version | Previous Version | Text Only | Print | Product List | Glossary Off
Versions: 1 2 3 4 5 6 7 8 9 10 11 12 13 14 15 16 17 18 19 20 21 22 23 24 25 26 27 28 29 30 31 32 33 34 35 36 37 38 39 40 41 42 43 44 45 46 47 48 49 50

000
ASUS43 KIND 020559
RWRIN

WEATHER ROUNDUP FOR INDIANA
NATIONAL WEATHER SERVICE INDIANAPOLIS IN
100 AM EST FRI DEC 02 2016

NOTE: "FAIR" INDICATES FEW OR NO CLOUDS BELOW 12,000 FEET WITH NO
SIGNIFICANT WEATHER AND/OR OBSTRUCTIONS TO VISIBILITY.

* - STATION DOES NOT REPORT WEATHER SUCH AS PRECIPITATION OR FOG.

+ - STATION NOT QUALITY CONTROLLED BY THE NATIONAL WEATHER SERVICE.
    USE DATA WITH CAUTION...ESPECIALLY DEWPOINT AND RELATIVE
    HUMIDITY OBSERVATIONS.

INZ001>003-010>013-019-020-020700-
NORTHWEST INDIANA

CITY           SKY/WX    TMP DP  RH WIND       PRES   REMARKS
MONTICELLO +   CLOUDY    36  29  75 SW8       30.03S
6HR MIN TEMP:  36; 6HR MAX TEMP:  38;


$$

LMZ046-743>745-020700-
SOUTHERN LAKE MICHIGAN

STATION/POSITION TIME  TEMP    WIND        PRES    WAVE
                       AIR SEA DIR/SP/G            HT
                 (UTC) (F)     (DEG/KT/KT) (MB)    (FT)
BURNS HARBOR     0530   39     240/ 13/ 15 1016.3S
MICHIGAN CITY    0530   40     240/ 17/ 20   N/A

$$

INZ004-005-014>016-021>024-020700-
NORTH CENTRAL INDIANA

CITY           SKY/WX    TMP DP  RH WIND       PRES   REMARKS
GOSHEN         CLOUDY    37  31  78 SW14      29.98S
6HR MIN TEMP:  37; 6HR MAX TEMP:  39;

SOUTH BEND     CLOUDY    36  32  85 SW12      29.99R
6HR MIN TEMP:  36; 6HR MAX TEMP:  38;


$$

INZ006>009-017-018-025>027-020700-
NORTHEAST INDIANA

CITY           SKY/WX    TMP DP  RH WIND       PRES   REMARKS
ANGOLA *+      CLOUDY    37  34  87 W9        29.96S
FORT WAYNE     CLOUDY    37  31  78 W12       30.01S
6HR MIN TEMP:  37; 6HR MAX TEMP:  38;

KENDALLVILLE + CLOUDY    36  32  86 W17       29.98R

$$

INZ028-029-035-036-043>045-051>053-020700-
WEST CENTRAL INDIANA

CITY           SKY/WX    TMP DP  RH WIND       PRES   REMARKS
CRAWFORDSVL +  CLOUDY    34  29  82 W10       30.07R WCI  26
6HR MIN TEMP:  34; 6HR MAX TEMP:  35;

GREENCASTLE +  CLOUDY    34  32  93 W6        30.08S WCI  29
LAFAYETTE      CLOUDY    36  31  82 W8        30.06R
6HR MIN TEMP:  36; 6HR MAX TEMP:  37;

TERRE HAUTE    CLOUDY    37  28  70 NW6       30.09S
6HR MIN TEMP:  37; 6HR MAX TEMP:  38;


$$

INZ030>032-037>040-046>048-054>057-064-065-020700-
CENTRAL INDIANA

CITY           SKY/WX    TMP DP  RH WIND       PRES   REMARKS
GREENWOOD *+   CLOUDY    37  30  78 NW6       30.07R
6HR MIN TEMP:  37; 6HR MAX TEMP:  37;

INDIANAPOLIS   CLOUDY    36  28  73 W10       30.07R
6HR MIN TEMP:  36; 6HR MAX TEMP:  37;

-EAGLE CREEK   CLOUDY    37  28  70 W9        30.06R
6HR MIN TEMP:  37; 6HR MAX TEMP:  38;

KOKOMO +       MIX PCPN  36  31  82 W12       30.05R
6HR MIN TEMP:  36; 6HR MAX TEMP:  38; 6HR PCP: TRACE;

SHELBYVILLE    CLOUDY    37  29  72 W8        30.06S
6HR MIN TEMP:  37; 6HR MAX TEMP:  38;


$$

INZ033-034-041-042-049-050-058-059-020700-
EAST CENTRAL INDIANA

CITY           SKY/WX    TMP DP  RH WIND       PRES   REMARKS
MUNCIE         CLOUDY    37  29  72 W12G20    30.04R
6HR MIN TEMP:  37; 6HR MAX TEMP:  39;


$$

INZ060-061-067>069-081>083-085>088-020700-
SOUTHWEST INDIANA

CITY           SKY/WX    TMP DP  RH WIND       PRES   REMARKS
EVANSVILLE     CLEAR     30  27  88 CALM      30.14R
6HR MIN TEMP:  30; 6HR MAX TEMP:  40;

HUNTINGBURG *+ PTCLDY    27  25  92 CALM      30.12S
6HR MIN TEMP:  27; 6HR MAX TEMP:  37;


$$

INZ062-063-066-070>080-084-089>092-020700-
SOUTH CENTRAL AND SOUTHEAST INDIANA

CITY           SKY/WX    TMP DP  RH WIND       PRES   REMARKS
BLOOMINGTON    CLOUDY    36  28  73 VRB3      30.08R
6HR MIN TEMP:  36; 6HR MAX TEMP:  38;

MADISON *+     MOCLDY    34  30  86 SW3       30.10R
SEYMOUR +      CLOUDY    37  32  81 W3        30.09R

$$





USA.gov is the U.S. government's official web portal to all federal, state and local government web resources and services.